Location: Goettingen
(51.5300°N, 9.9433°E)
Time: 10:41:06
(UTC+02:00)

ISS - Pass Details

Date: 23 May 2019
Orbit: 407 x 410 km, 51.6° (Epoch: 21 May)

Event Time Altitude Azimuth Distance (km) Brightness Sun altitude
Rises 23:26:11 0° 271° (W) 2,334 0.4 -13.8°
Reaches altitude 10° 23:28:16 10° 272° (W) 1,473 -0.6 -14.0°
Maximum altitude 23:31:34 86° 359° (N) 415 -3.8 -14.2°
Drops below altitude 10° 23:34:53 10° 91° (E) 1,474 -1.2 -14.4°
Enters shadow 23:34:59 - 91° (E) 1,512 -1.2 -14.4°
